Погода в Скнятинове

Россия / Ярославская область     57°04′54″N   39°20′20″E
темп.,
°C
ветер,
м/с
пор.,
м/с
влажн.,
%
обл.,
%
осадки,
мм/ч
давл.,
гПа
погр.,
м
16 мая, вс
вс1600:00+12ю310945 0.4 1009206
03:00+12ю39975 0.4 1009222
06:00+13ююз4119624 0.0 1010360
09:00+17юз610765 0.0 1011877
12:00+20ююз7105826 0.0 10111852
15:00+19ююз6106891 0.5 1012813
18:00+18юз510715 0.5 1012865
21:00+14юз36925 0.5 1013118
17 мая, пн
пн1700:00+13юз34950 0.0 101468
03:00+12зюз22955 0.0 101533
06:00+14ю1191100 0.0 101653
09:00+18юв227410 0.0 1017495
12:00+21юв346072 0.0 10161185
15:00+23юв455610 0.0 10151273
18:00+22вюв377016 0.0 1014565
21:00+17вюв411895 0.3 1014203
18 мая, вт
вт1800:00+15юв412956 0.2 1013220
03:00+14юв49925 0.2 1013147
06:00+15вюв411875 0.0 1012242
09:00+21юв6136732 0.0 1011514
12:00+25юв713555 0.0 1011967
15:00+26юв712525 0.0 10101376
18:00+23юв6136055 0.0 1009562
21:00+19вюв516725 0.0 1008441
19 мая, ср
ср1900:00+18юв6167492 0.0 1007430
03:00+17юв51477100 0.0 1007420
06:00+16ююв5128338 0.0 1007454
09:00+20ююв7106916 0.0 1007995
12:00+21ююв81472100 0.6 10071740
15:00+18ююв61382100 2.4 1007757
18:00+13ю3994100 5.7 1007414
21:00+13ю513942 6.2 1008474
20 мая, чт
чт2000:00+12ююв3109653 0.0 1008254
03:00+11ююв5119491 0.0 1008318
06:00+12ю61291100 0.0 1008880
09:00+14ююз6869100 0.0 10071112
12:00+13юз6872100 0.2 10081083
15:00+14юз697271 0.5 10081295
18:00+13зюз61181100 0.5 1011972
21:00+10юз410865 0.5 1014345